Location: São Paulo
(23.5507°S, 46.6334°W)
Time: 17:54:50
(UTC-03:00)

A-11 Canister half - Pass Details

Date: 15 February 2026
Orbit: 1524 x 1683 km, 47.3° (Epoch: 13 March)

Event Time Altitude Azimuth Distance (km) Brightness Sun altitude
Exits shadow 04:12:04 35° 299° (WNW) 2,452 9.5 -22.9°
Maximum altitude 04:17:03 73° 223° (SW) 1,733 9.1 -21.8°
Drops below altitude 10° 04:27:16 10° 138° (SE) 3,960 12.1 -19.7°
Sets 04:30:29 0° 135° (SE) 4,952 12.9 -19.0°
